Location: Cactus School
(34.5700°N, 118.0931°W)
Time: 01:55:27
(UTC-07:00)

Courier 1B - Pass Details

Date: 29 April 2024
Orbit: 962 x 1208 km, 28.3° (Epoch: 23 May)

Event Time Altitude Azimuth Distance (km) Brightness Sun altitude
Exits shadow 04:13:47 28° 198° (SSW) 1,973 8.6 -20.9°
Drops below altitude 10° 04:19:20 10° 148° (SSE) 2,917 10.0 -20.0°
Sets 04:22:25 0° 137° (SE) 3,829 10.7 -19.5°
